[[{"header":{"parameterUnit":"m.s-1","parameterCategory":1,"la1":30.2991,"la2":30.254,"lo1":-89.0895,"lo2":-89.0444,"dx":0.0017,"dy":0.0017,"nx":28,"ny":28,"refTime":"2022-11-16T03:00:00:Z","depth":0,"parameterNumber":2,"parameterNumberName":"U-component_of_WINDS"},"data":[0,0,0,0,0,0,0,0,0,0,0,0,0,0,0,0,0,0,0,0,0,0,0,0,0,0,0,0,0,0,0,0,0,0,0,0,0,0,0,0,0,0,0,0,0,0,0,0,0,0,0,0,0,0,0,0,0,0,1.8565,1.8566,0,1.8576,1.8576,1.8576,1.8564,1.8563,1.8563,1.8562,1.8572,1.8573,1.8574,0,0,0,0,0,0,0,0,0,0,0,0,0,1.8536,1.8537,1.8565,1.8566,1.8566,1.8576,1.8576,1.8576,1.8564,1.8563,1.8563,1.8562,1.8572,1.8573,1.8574,0,0,0,0,0,0,0,0,0,0,0,0,0,1.8548,1.8537,1.8565,1.8561,1.8561,1.8576,1.8576,1.8576,1.8564,1.8563,1.8562,1.8562,1.8572,1.8573,1.8574,1.8594,0,0,1.8577,1.8577,0,0,0,0,0,0,0,0,1.8547,1.8549,1.8561,1.8561,1.8561,1.8568,1.8569,1.8582,1.8564,1.8563,1.8562,1.8561,1.8571,1.8572,1.8576,1.8594,1.8595,1.8577,1.8578,1.8578,1.8578,0,0,0,0,0,0,0,1.8547,1.8549,1.8569,1.8562,1.8561,1.8559,1.8559,1.8571,1.8571,1.8563,1.8562,1.8563,1.8571,1.8575,1.8576,1.8595,1.8577,1.8578,1.8579,1.8579,1.8631,1.8632,0,0,0,0,0,0,1.8546,1.8548,1.8569,1.857,1.8552,1.856,1.8561,1.8566,1.857,1.857,1.8564,1.8563,1.8573,1.8575,1.8576,1.86,1.8578,1.8579,1.858,1.8631,1.8632,1.8632,0,0,0,0,0,0,1.8546,1.8548,1.8569,1.8559,1.8561,1.8561,1.8567,1.8567,1.857,1.8571,1.8571,1.8568,1.8573,1.8575,1.859,1.86,1.858,1.858,1.863,1.8631,1.8632,1.8648,0,0,0,0,0,0,1.8545,1.8548,1.8555,1.8559,1.8562,1.8582,1.8568,1.8567,1.8572,1.8571,1.8575,1.8575,1.8572,1.8588,1.8591,1.8601,1.8581,1.8629,1.863,1.8632,1.8647,1.865,1.8652,0,0,0,0,0,1.8544,1.8559,1.8556,1.8558,1.8571,1.8583,1.8584,1.8581,1.8573,1.8581,1.8582,1.8575,1.8599,1.859,1.8593,1.8604,1.8628,1.863,1.8632,1.8645,1.8649,1.8652,0,0,0,0,0,0,1.8556,1.8559,1.8556,1.8572,1.8577,1.858,1.859,1.8585,1.8592,1.859,1.8586,1.8587,1.8604,1.8605,1.8595,1.8624,1.8612,1.8615,1.8622,1.8626,1.8628,1.8627,1.8582,0,0,0,0,0,1.8561,1.857,1.8573,1.8587,1.859,1.859,1.8595,1.8592,1.8597,1.8599,1.8601,1.8606,1.8614,1.862,1.8628,1.8647,1.8648,1.8657,1.8659,1.8662,1.8664,1.8675,1.8678,1.8638,1.8638,1.8638,0,0,1.857,1.8574,1.8579,1.859,1.8593,1.8603,1.8591,1.8602,1.861,1.86,1.8615,1.8617,1.8622,1.8639,1.8647,1.8641,1.8675,1.8664,1.8666,1.8666,1.8677,1.8681,1.8684,1.8639,1.8639,1.8639,0,0,1.8593,1.8596,1.8609,1.8613,1.8619,1.8619,1.8622,1.8627,1.8627,1.8642,1.8636,1.8645,1.866,1.8664,1.8668,1.8695,1.8689,1.8698,1.8713,1.8723,1.8727,1.8729,1.8739,1.8743,1.87,1.87,1.87,0,1.8604,1.8619,1.8616,1.8628,1.8633,1.8626,1.864,1.8644,1.8652,1.8656,1.8649,1.8669,1.8672,1.8691,1.8698,1.8701,1.8705,1.8697,1.8726,1.8729,1.8732,1.8741,1.8745,1.8701,1.8701,1.8701,1.8701,0,1.8633,1.8643,1.8653,1.8662,1.8668,1.868,1.868,1.8687,1.8685,1.8685,1.8701,1.8705,1.8714,1.8719,1.8716,1.8737,1.8734,1.8727,1.8715,1.8737,1.8745,1.8749,1.8702,1.8702,1.8702,1.8702,0,0,1.8661,1.867,1.8674,1.8678,1.8685,1.8693,1.8706,1.8715,1.8721,1.8728,1.8738,1.8752,1.8747,1.8752,1.875,1.8759,1.8781,1.8752,1.8752,1.8757,1.8805,1.881,1.8814,1.8778,1.8778,1.8779,1.8805,0,1.8684,1.8706,1.8705,1.8726,1.8736,1.8731,1.8742,1.8748,1.8749,1.8758,1.876,1.877,1.8762,1.8765,1.8774,1.8776,1.879,1.8774,1.8787,1.8788,1.8786,1.8818,1.8823,1.8847,1.8808,1.8809,1.8809,0,1.8713,1.8722,1.8743,1.875,1.8754,1.8764,1.8774,1.8782,1.8789,1.879,1.8796,1.8793,1.8807,1.8795,1.8814,1.8803,1.8809,1.8811,1.8812,1.8812,1.8799,1.882,1.8855,1.8858,1.8814,1.8814,1.8814,0,1.8732,1.8749,1.8764,1.8768,1.8776,1.8784,1.8787,1.8794,1.88,1.8808,1.8812,1.8822,1.8827,1.8835,1.8835,1.8827,1.8854,1.8843,1.8855,1.8855,1.8861,1.886,1.8897,1.8865,1.8865,1.8865,1.8865,0,1.8758,1.8771,1.8773,1.8783,1.8798,1.8797,1.8813,1.8816,1.8822,1.8832,1.8828,1.8838,1.8838,1.8848,1.8848,1.8864,1.8866,1.8867,1.8867,1.8867,1.8867,1.887,1.8868,1.8866,1.8866,1.8866,1.8865,0,1.8781,1.8783,1.8799,1.8806,1.8808,1.8819,1.8825,1.8835,1.8837,1.885,1.8853,1.8856,1.8868,1.8869,1.8882,1.8883,1.8902,1.89,1.8899,1.8899,1.8911,1.891,1.8951,1.8957,1.8921,1.8922,1.8922,0,1.8796,1.8807,1.8815,1.8822,1.8827,1.8837,1.8844,1.8845,1.8852,1.8861,1.887,1.8881,1.889,1.891,1.8913,1.8924,1.8922,1.8936,1.8923,1.8924,1.8922,1.8921,1.8923,1.8938,1.8938,1.8939,1.8939,0,1.8824,1.8825,1.8835,1.8846,1.8854,1.8862,1.887,1.8876,1.8877,1.8886,1.8898,1.8905,1.892,1.8932,1.8943,1.8947,1.8943,1.8943,1.8946,1.8946,1.8946,1.8946,1.8906,1.8942,1.8941,1.8941,1.8941,1.8941,1.8844,1.8853,1.8861,1.8873,1.8879,1.8887,1.8896,1.89,1.891,1.8922,1.8922,1.8936,1.8944,1.8958,1.8963,1.8974,1.897,1.8974,1.8976,1.8977,1.8978,1.8945,1.8976,1.8976,1.8976,1.8976,1.8976,0,1.8871,1.8876,1.8887,1.8899,1.8908,1.8905,1.8914,1.8922,1.8934,1.8942,1.8952,1.8966,1.8978,1.8983,1.8995,1.9003,1.9002,1.9006,1.9005,1.9006,1.8981,1.8977,1.9007,1.9007,1.9007,1.9007,1.9007,1.9007,1.8887,1.8903,1.8905,1.8924,1.893,1.8943,1.8949,1.8956,1.8963,1.8979,1.8989,1.8993,1.9,1.9012,1.9023,1.9025,1.9029,1.9034,1.9034,1.9011,1.9008,1.9005,1.9001,1.9035,1.9035,1.9058,1.9059,1.9059]},{"header":{"parameterUnit":"m.s-1","parameterCategory":1,"la1":30.2991,"la2":30.254,"lo1":-89.0895,"lo2":-89.0444,"dx":0.0017,"dy":0.0017,"nx":28,"ny":28,"refTime":"2022-11-16T03:00:00:Z","depth":0,"parameterNumber":3,"parameterNumberName":"V-component_of_WINDS"},"data":[0,0,0,0,0,0,0,0,0,0,0,0,0,0,0,0,0,0,0,0,0,0,0,0,0,0,0,0,0,0,0,0,0,0,0,0,0,0,0,0,0,0,0,0,0,0,0,0,0,0,0,0,0,0,0,0,0,0,-5.0289,-5.029,0,-5.034,-5.0341,-5.0342,-5.0293,-5.0291,-5.029,-5.0288,-5.0338,-5.0341,-5.0344,0,0,0,0,0,0,0,0,0,0,0,0,0,-5.0148,-5.0151,-5.0289,-5.029,-5.029,-5.034,-5.0341,-5.0342,-5.0294,-5.0291,-5.0289,-5.0287,-5.0337,-5.0341,-5.0345,0,0,0,0,0,0,0,0,0,0,0,0,0,-5.0206,-5.0152,-5.0289,-5.0272,-5.0271,-5.034,-5.0341,-5.0342,-5.0294,-5.0291,-5.0288,-5.0286,-5.0336,-5.0341,-5.0345,-5.0432,0,0,-5.036,-5.0362,0,0,0,0,0,0,0,0,-5.0202,-5.0211,-5.0274,-5.0274,-5.0273,-5.0308,-5.031,-5.0372,-5.0295,-5.0286,-5.0288,-5.0284,-5.033,-5.0335,-5.0351,-5.0434,-5.0437,-5.036,-5.0363,-5.0365,-5.0366,0,0,0,0,0,0,0,-5.0198,-5.0208,-5.0309,-5.0275,-5.0274,-5.0262,-5.0267,-5.0322,-5.0323,-5.0286,-5.0283,-5.029,-5.0329,-5.0347,-5.0352,-5.0437,-5.036,-5.0364,-5.0367,-5.0369,-5.0596,-5.0599,0,0,0,0,0,0,-5.0196,-5.0205,-5.0308,-5.0311,-5.023,-5.0267,-5.0273,-5.0299,-5.0323,-5.0324,-5.0292,-5.0287,-5.034,-5.0347,-5.0354,-5.0458,-5.0365,-5.0369,-5.0372,-5.0593,-5.0597,-5.0601,0,0,0,0,0,0,-5.0194,-5.0206,-5.0306,-5.0257,-5.0269,-5.0273,-5.0303,-5.0302,-5.0319,-5.0327,-5.0327,-5.031,-5.0338,-5.0347,-5.0414,-5.0459,-5.0371,-5.0376,-5.0589,-5.0594,-5.0599,-5.0667,0,0,0,0,0,0,-5.019,-5.0205,-5.0239,-5.0258,-5.0272,-5.0365,-5.0306,-5.0305,-5.0328,-5.0322,-5.0344,-5.0344,-5.0336,-5.0407,-5.0418,-5.0464,-5.0379,-5.0585,-5.0592,-5.0597,-5.0661,-5.0674,-5.0685,0,0,0,0,0,-5.0185,-5.0255,-5.024,-5.0253,-5.0313,-5.0368,-5.0375,-5.0365,-5.0332,-5.0365,-5.037,-5.0344,-5.0452,-5.0414,-5.0426,-5.0474,-5.0582,-5.059,-5.0597,-5.0655,-5.0671,-5.0684,0,0,0,0,0,0,-5.0239,-5.0257,-5.0241,-5.032,-5.0343,-5.036,-5.0401,-5.0382,-5.0415,-5.0408,-5.0393,-5.0399,-5.0469,-5.0478,-5.0435,-5.0561,-5.0512,-5.0522,-5.0552,-5.0567,-5.0579,-5.0575,-5.0383,0,0,0,0,0,-5.026,-5.0303,-5.0317,-5.0385,-5.0397,-5.0398,-5.0421,-5.0411,-5.0434,-5.0443,-5.0453,-5.0476,-5.0516,-5.0542,-5.0578,-5.0662,-5.0666,-5.0701,-5.0713,-5.0723,-5.0732,-5.0778,-5.0794,-5.0624,-5.0624,-5.0624,0,0,-5.0304,-5.0319,-5.0347,-5.0396,-5.0413,-5.0458,-5.0406,-5.0455,-5.0488,-5.0451,-5.0515,-5.0523,-5.0548,-5.0624,-5.0658,-5.0633,-5.078,-5.0732,-5.074,-5.0744,-5.0787,-5.0803,-5.0818,-5.0629,-5.0628,-5.0628,0,0,-5.0407,-5.0423,-5.0482,-5.05,-5.0527,-5.0527,-5.0541,-5.0562,-5.0566,-5.0631,-5.0604,-5.0643,-5.071,-5.073,-5.0748,-5.0861,-5.0838,-5.0873,-5.0936,-5.0981,-5.0994,-5.1006,-5.1047,-5.1062,-5.0882,-5.0882,-5.0882,0,-5.0458,-5.0525,-5.0514,-5.0567,-5.0589,-5.0559,-5.0619,-5.0636,-5.0673,-5.069,-5.0662,-5.0748,-5.0762,-5.0843,-5.0871,-5.0887,-5.0903,-5.0871,-5.0994,-5.1005,-5.1016,-5.1055,-5.1071,-5.0886,-5.0886,-5.0886,-5.0885,0,-5.0587,-5.0635,-5.0679,-5.0717,-5.0745,-5.08,-5.0798,-5.0827,-5.0816,-5.0819,-5.0885,-5.0902,-5.0942,-5.096,-5.0949,-5.104,-5.1024,-5.0996,-5.0946,-5.1037,-5.1073,-5.1088,-5.0892,-5.0891,-5.089,-5.0889,0,0,-5.0725,-5.0758,-5.0774,-5.0792,-5.082,-5.0856,-5.0911,-5.0951,-5.0977,-5.1004,-5.1049,-5.1109,-5.1083,-5.1104,-5.1095,-5.1134,-5.1224,-5.1101,-5.1101,-5.1124,-5.1327,-5.1349,-5.1366,-5.1209,-5.1212,-5.1214,-5.1325,0,-5.083,-5.0926,-5.0918,-5.1009,-5.1053,-5.1025,-5.1073,-5.1096,-5.1101,-5.1138,-5.1143,-5.1186,-5.1148,-5.1161,-5.1199,-5.1205,-5.1265,-5.1197,-5.1252,-5.1254,-5.1247,-5.1385,-5.1408,-5.1512,-5.1339,-5.1342,-5.1343,0,-5.0964,-5.0998,-5.1093,-5.1117,-5.1135,-5.1178,-5.1215,-5.1252,-5.1277,-5.1278,-5.1303,-5.1287,-5.1343,-5.1292,-5.1369,-5.1323,-5.1345,-5.1352,-5.1356,-5.1361,-5.1305,-5.1395,-5.1545,-5.1561,-5.1366,-5.1364,-5.1362,0,-5.1057,-5.1125,-5.1192,-5.1207,-5.1236,-5.1267,-5.128,-5.1302,-5.1328,-5.136,-5.1377,-5.1415,-5.1436,-5.1466,-5.1461,-5.1425,-5.1539,-5.1488,-5.1542,-5.1542,-5.1567,-5.1566,-5.1724,-5.1581,-5.1581,-5.158,-5.158,0,-5.1175,-5.1234,-5.1234,-5.1275,-5.1341,-5.1332,-5.1398,-5.1407,-5.1428,-5.147,-5.1448,-5.1488,-5.148,-5.152,-5.1516,-5.1581,-5.159,-5.1593,-5.1591,-5.1595,-5.1595,-5.1609,-5.1602,-5.1584,-5.1583,-5.1583,-5.1582,0,-5.1289,-5.129,-5.1361,-5.1383,-5.139,-5.1438,-5.1456,-5.1495,-5.1499,-5.1553,-5.1565,-5.157,-5.1616,-5.1615,-5.1667,-5.1665,-5.1744,-5.1734,-5.1736,-5.1735,-5.1788,-5.1784,-5.1962,-5.1985,-5.1826,-5.1828,-5.1829,0,-5.1364,-5.141,-5.1437,-5.1464,-5.148,-5.1524,-5.155,-5.1544,-5.1572,-5.1605,-5.164,-5.1685,-5.172,-5.1795,-5.1803,-5.1843,-5.1834,-5.1894,-5.184,-5.1843,-5.1836,-5.1834,-5.1839,-5.1904,-5.1906,-5.1908,-5.1909,0,-5.1498,-5.1497,-5.1537,-5.1577,-5.1609,-5.164,-5.1669,-5.1692,-5.1689,-5.1722,-5.1769,-5.1797,-5.1851,-5.1896,-5.1934,-5.1947,-5.1928,-5.1926,-5.194,-5.1945,-5.1945,-5.1947,-5.1766,-5.1922,-5.192,-5.1919,-5.1919,-5.1918,-5.1596,-5.1636,-5.1662,-5.1707,-5.1728,-5.1755,-5.1794,-5.1803,-5.1843,-5.1887,-5.188,-5.1934,-5.1959,-5.201,-5.2026,-5.2068,-5.2047,-5.2068,-5.2073,-5.2079,-5.2085,-5.1938,-5.2075,-5.2075,-5.2074,-5.2074,-5.2074,0,-5.173,-5.1746,-5.1787,-5.1829,-5.1864,-5.1844,-5.1875,-5.1906,-5.1954,-5.1979,-5.2015,-5.207,-5.2114,-5.2127,-5.2169,-5.22,-5.2192,-5.2211,-5.2209,-5.2213,-5.2101,-5.2085,-5.2217,-5.2217,-5.2217,-5.2217,-5.2217,-5.2217,-5.1804,-5.1871,-5.1873,-5.1951,-5.1966,-5.2019,-5.2039,-5.2064,-5.2085,-5.2148,-5.2185,-5.2193,-5.2214,-5.2258,-5.2297,-5.23,-5.2317,-5.234,-5.2339,-5.2235,-5.222,-5.2206,-5.2191,-5.2343,-5.2343,-5.2447,-5.2448,-5.2448]}]]